^^
Saratoga-Weather Station Historical Data
Daily Summary for June 9, 2020 Units:  Metric    English   Both
Daily Weekly Monthly Yearly Custom
  High: Low: Average:
Temperature: 19.9 °C 12.2 °C 15.5 °C
Dew Point: 14.2 °C 9.3 °C 11.2 °C
Humidity: 90% 56% 76%
Wind Speed: 14.5km/h 0km/h 2.9km/h
Wind Gust: 16.1km/h - -
Wind- - SW
Pressure: 1015.6 hPa 1013.5 hPa -
Precipitation: 1.3 mm    
Historical Graphs
 
 
Tabular Data for June 9, 2020
Time Temperature Dew Point Pressure Wind Wind Speed Wind Gust Humidity Rainfall Rate (Hourly) solar
00:03 14.9 °C 9.7 °C 1013.9 hPa NW 3.2 km/h 3.2 km/h 71% 0.0 mm 0 W/m2
00:08 14.8 °C 9.6 °C 1013.9 hPa WNW 1.4 km/h 6.4 km/h 71% 0.0 mm 0 W/m2
00:13 14.8 °C 9.6 °C 1013.9 hPa WNW 3.2 km/h 4.8 km/h 71% 0.0 mm 0 W/m2
00:18 14.8 °C 9.6 °C 1013.9 hPa NW 1.4 km/h 3.2 km/h 71% 0.0 mm 0 W/m2
00:23 14.8 °C 9.6 °C 1013.9 hPa Calm   3.2 km/h 71% 0.0 mm 0 W/m2
00:28 14.7 °C 9.5 °C 1013.9 hPa NE 3.2 km/h 4.8 km/h 71% 0.0 mm 0 W/m2
00:33 14.7 °C 9.5 °C 1013.9 hPa North 1.4 km/h 6.4 km/h 71% 0.0 mm 0 W/m2
00:38 14.7 °C 9.7 °C 1013.9 hPa West 1.4 km/h 6.4 km/h 72% 0.0 mm 0 W/m2
00:43 14.7 °C 9.7 °C 1014.2 hPa NNW 3.2 km/h 9.7 km/h 72% 0.0 mm 0 W/m2
00:48 14.7 °C 9.7 °C 1014.2 hPa SW 3.2 km/h 4.8 km/h 72% 0.0 mm 0 W/m2
00:53 14.7 °C 9.7 °C 1014.2 hPa WNW 4.7 km/h 8 km/h 72% 0.0 mm 0 W/m2
00:58 14.6 °C 9.6 °C 1014.2 hPa WNW 3.2 km/h 9.7 km/h 72% 0.0 mm 0 W/m2
01:03 14.6 °C 9.6 °C 1014.2 hPa WNW 7.9 km/h 8 km/h 72% 0.0 mm 0 W/m2
01:08 14.6 °C 9.6 °C 1014.2 hPa WSW 11.1 km/h 11.3 km/h 72% 0.0 mm 0 W/m2
01:13 14.6 °C 9.6 °C 1014.2 hPa NW 1.4 km/h 3.2 km/h 72% 0.0 mm 0 W/m2
01:19 14.5 °C 9.7 °C 1013.9 hPa WSW 3.2 km/h 11.3 km/h 73% 0.0 mm 0 W/m2
01:24 14.5 °C 9.7 °C 1014.2 hPa West 4.7 km/h 9.7 km/h 73% 0.0 mm 0 W/m2
01:29 14.5 °C 9.7 °C 1013.9 hPa WNW 3.2 km/h 11.3 km/h 73% 0.0 mm 0 W/m2
01:34 14.4 °C 9.6 °C 1013.9 hPa WSW 7.9 km/h 8 km/h 73% 0.0 mm 0 W/m2
01:39 14.4 °C 9.8 °C 1013.9 hPa WNW 4.7 km/h 11.3 km/h 74% 0.0 mm 0 W/m2
01:44 14.4 °C 9.8 °C 1013.9 hPa North 4.7 km/h 4.8 km/h 74% 0.0 mm 0 W/m2
01:49 14.3 °C 9.7 °C 1013.9 hPa East 1.4 km/h 4.8 km/h 74% 0.0 mm 0 W/m2
01:54 14.3 °C 9.7 °C 1013.9 hPa Calm   1.6 km/h 74% 0.0 mm 0 W/m2
01:59 14.2 °C 9.6 °C 1013.9 hPa ENE 1.4 km/h 4.8 km/h 74% 0.0 mm 0 W/m2
02:04 14.2 °C 9.8 °C 1013.9 hPa WNW 1.4 km/h 8 km/h 75% 0.0 mm 0 W/m2
02:09 14.2 °C 9.8 °C 1013.9 hPa NNW 4.7 km/h 4.8 km/h 75% 0.0 mm 0 W/m2
02:14 14.1 °C 9.7 °C 1013.9 hPa WSW 6.4 km/h 11.3 km/h 75% 0.0 mm 0 W/m2
02:19 14.1 °C 9.7 °C 1013.5 hPa NW 3.2 km/h 6.4 km/h 75% 0.0 mm 0 W/m2
02:24 14.1 °C 9.7 °C 1013.5 hPa NNW 7.9 km/h 8 km/h 75% 0.0 mm 0 W/m2
02:29 14.1 °C 9.5 °C 1013.5 hPa West 3.2 km/h 8 km/h 74% 0.0 mm 0 W/m2
02:34 14.1 °C 9.3 °C 1013.5 hPa NNW 4.7 km/h 14.5 km/h 73% 0.0 mm 0 W/m2
02:39 14.1 °C 9.5 °C 1013.5 hPa NW 1.4 km/h 4.8 km/h 74% 0.0 mm 0 W/m2
02:44 14 °C 9.4 °C 1013.5 hPa North 3.2 km/h 12.9 km/h 74% 0.0 mm 0 W/m2
02:49 13.9 °C 9.3 °C 1013.5 hPa NNW 1.4 km/h 6.4 km/h 74% 0.0 mm 0 W/m2
02:54 13.9 °C 9.5 °C 1013.5 hPa WNW 1.4 km/h 3.2 km/h 75% 0.0 mm 0 W/m2
02:59 13.8 °C 9.4 °C 1013.5 hPa NNW 4.7 km/h 6.4 km/h 75% 0.0 mm 0 W/m2
03:04 13.7 °C 9.5 °C 1013.5 hPa SW 1.4 km/h 4.8 km/h 76% 0.0 mm 0 W/m2
03:09 13.7 °C 9.5 °C 1013.5 hPa West 4.7 km/h 4.8 km/h 76% 0.0 mm 0 W/m2
03:14 13.6 °C 9.4 °C 1013.5 hPa NW 3.2 km/h 4.8 km/h 76% 0.0 mm 0 W/m2
03:19 13.5 °C 9.5 °C 1013.5 hPa NW 3.2 km/h 4.8 km/h 77% 0.0 mm 0 W/m2
03:24 13.4 °C 9.4 °C 1013.5 hPa WNW 6.4 km/h 9.7 km/h 77% 0.0 mm 0 W/m2
03:29 13.4 °C 9.4 °C 1013.5 hPa West 6.4 km/h 6.4 km/h 77% 0.0 mm 0 W/m2
03:34 13.4 °C 9.4 °C 1013.5 hPa West 6.4 km/h 11.3 km/h 77% 0.0 mm 0 W/m2
03:39 13.4 °C 9.6 °C 1013.5 hPa NW 6.4 km/h 9.7 km/h 78% 0.0 mm 0 W/m2
03:44 13.4 °C 9.6 °C 1013.5 hPa West 3.2 km/h 4.8 km/h 78% 0.0 mm 0 W/m2
03:49 13.3 °C 9.5 °C 1013.5 hPa WNW 3.2 km/h 6.4 km/h 78% 0.0 mm 0 W/m2
03:54 13.3 °C 9.7 °C 1013.5 hPa NW 1.4 km/h 6.4 km/h 79% 0.0 mm 0 W/m2
03:59 13.3 °C 9.7 °C 1013.5 hPa North 1.4 km/h 9.7 km/h 79% 0.0 mm 0 W/m2
04:04 13.3 °C 9.7 °C 1013.5 hPa Calm   8 km/h 79% 0.0 mm 0 W/m2
04:14 13.2 °C 9.6 °C 1013.5 hPa WNW 6.4 km/h 8 km/h 79% 0.0 mm 0 W/m2
04:19 13.2 °C 9.8 °C 1013.5 hPa WSW 3.2 km/h 4.8 km/h 80% 0.0 mm 0 W/m2
04:24 13.1 °C 9.7 °C 1013.5 hPa Calm   12.9 km/h 80% 0.0 mm 0 W/m2
04:29 13.1 °C 9.7 °C 1013.5 hPa West 6.4 km/h 8 km/h 80% 0.0 mm 0 W/m2
04:34 13 °C 9.6 °C 1013.5 hPa NNW 3.2 km/h 6.4 km/h 80% 0.0 mm 0 W/m2
04:39 12.9 °C 9.7 °C 1013.5 hPa North 1.4 km/h 3.2 km/h 81% 0.0 mm 0 W/m2
04:44 12.8 °C 9.6 °C 1013.5 hPa NW 3.2 km/h 6.4 km/h 81% 0.0 mm 0 W/m2
04:49 12.8 °C 9.8 °C 1013.5 hPa NW 1.4 km/h 3.2 km/h 82% 0.0 mm 0 W/m2
04:54 12.7 °C 9.7 °C 1013.5 hPa Calm     82% 0.0 mm 0 W/m2
04:59 12.6 °C 9.6 °C 1013.5 hPa WNW 1.4 km/h 4.8 km/h 82% 0.0 mm 0 W/m2
05:04 12.5 °C 9.5 °C 1013.5 hPa WNW 1.4 km/h 6.4 km/h 82% 0.0 mm 0 W/m2
05:09 12.4 °C 9.6 °C 1013.5 hPa NNW 3.2 km/h 8 km/h 83% 0.0 mm 0 W/m2
05:14 12.4 °C 9.6 °C 1013.5 hPa North 1.4 km/h 3.2 km/h 83% 0.0 mm 0 W/m2
05:19 12.4 °C 9.6 °C 1013.5 hPa NW 1.4 km/h 3.2 km/h 83% 0.0 mm 0 W/m2
05:24 12.4 °C 9.8 °C 1013.5 hPa North 3.2 km/h 4.8 km/h 84% 0.0 mm 0 W/m2
05:29 12.4 °C 9.6 °C 1013.5 hPa WNW 1.4 km/h 4.8 km/h 83% 0.0 mm 0 W/m2
05:34 12.3 °C 9.7 °C 1013.5 hPa WNW 1.4 km/h 4.8 km/h 84% 0.0 mm 0 W/m2
05:39 12.3 °C 9.7 °C 1013.5 hPa NW 3.2 km/h 6.4 km/h 84% 0.0 mm 5 W/m2
05:44 12.2 °C 9.6 °C 1013.5 hPa WNW 3.2 km/h 9.7 km/h 84% 0.0 mm 5 W/m2
05:49 12.2 °C 9.8 °C 1013.5 hPa West 3.2 km/h 3.2 km/h 85% 0.0 mm 5 W/m2
05:54 12.2 °C 9.8 °C 1013.9 hPa NNW 1.4 km/h 3.2 km/h 85% 0.0 mm 7 W/m2
05:59 12.2 °C 9.8 °C 1013.9 hPa WNW 4.7 km/h 4.8 km/h 85% 0.0 mm 9 W/m2
06:04 12.2 °C 9.8 °C 1013.9 hPa SW 3.2 km/h 11.3 km/h 85% 0.0 mm 14 W/m2
06:09 12.3 °C 9.9 °C 1013.9 hPa Calm   1.6 km/h 85% 0.0 mm 19 W/m2
06:14 12.3 °C 9.9 °C 1013.9 hPa WNW 1.4 km/h 11.3 km/h 85% 0.0 mm 21 W/m2
06:24 12.4 °C 9.8 °C 1013.9 hPa West 3.2 km/h 4.8 km/h 84% 0.0 mm 32 W/m2
06:29 12.4 °C 9.8 °C 1013.9 hPa WNW 7.9 km/h 9.7 km/h 84% 0.0 mm 39 W/m2
06:34 12.5 °C 9.9 °C 1013.9 hPa WNW 1.4 km/h 6.4 km/h 84% 0.0 mm 51 W/m2
06:39 12.5 °C 9.9 °C 1013.9 hPa NW 4.7 km/h 4.8 km/h 84% 0.0 mm 58 W/m2
06:44 12.6 °C 10 °C 1013.9 hPa West 4.7 km/h 8 km/h 84% 0.0 mm 60 W/m2
06:50 12.6 °C 10 °C 1014.2 hPa WNW 1.4 km/h 4.8 km/h 84% 0.0 mm 53 W/m2
06:55 12.6 °C 10 °C 1014.2 hPa WNW 3.2 km/h 3.2 km/h 84% 0.0 mm 51 W/m2
07:00 12.6 °C 10 °C 1014.2 hPa NW 3.2 km/h 4.8 km/h 84% 0.0 mm 63 W/m2
07:05 12.7 °C 10.1 °C 1014.2 hPa NW 3.2 km/h 8 km/h 84% 0.0 mm 76 W/m2
07:10 12.8 °C 10.2 °C 1014.2 hPa NNE 4.7 km/h 6.4 km/h 84% 0.0 mm 97 W/m2
07:15 12.9 °C 10.3 °C 1014.2 hPa WNW 3.2 km/h 8 km/h 84% 0.0 mm 114 W/m2
07:20 13 °C 10.2 °C 1014.2 hPa NNW 1.4 km/h 9.7 km/h 83% 0.0 mm 123 W/m2
07:25 13.1 °C 10.3 °C 1014.2 hPa SSE 7.9 km/h 8 km/h 83% 0.0 mm 123 W/m2
07:30 13.2 °C 10.4 °C 1014.2 hPa WSW 6.4 km/h 6.4 km/h 83% 0.0 mm 120 W/m2
07:35 13.4 °C 10.4 °C 1014.2 hPa West 4.7 km/h 4.8 km/h 82% 0.0 mm 142 W/m2
07:40 13.6 °C 10.4 °C 1014.2 hPa NNW 6.4 km/h 6.4 km/h 81% 0.0 mm 204 W/m2
07:45 13.6 °C 10.4 °C 1014.2 hPa NNE 1.4 km/h 4.8 km/h 81% 0.0 mm 176 W/m2
07:50 13.6 °C 10.4 °C 1014.6 hPa East 1.4 km/h 6.4 km/h 81% 0.0 mm 125 W/m2
07:55 13.7 °C 10.5 °C 1014.6 hPa West 1.4 km/h 4.8 km/h 81% 0.0 mm 104 W/m2
08:00 13.7 °C 10.5 °C 1014.6 hPa ENE 3.2 km/h 3.2 km/h 81% 0.0 mm 118 W/m2
08:05 13.6 °C 10.4 °C 1014.6 hPa Calm   6.4 km/h 81% 0.0 mm 121 W/m2
08:10 13.7 °C 10.7 °C 1014.6 hPa NW 3.2 km/h 4.8 km/h 82% 0.0 mm 158 W/m2
08:15 13.7 °C 10.7 °C 1014.6 hPa WNW 1.4 km/h 6.4 km/h 82% 0.0 mm 162 W/m2
08:20 13.8 °C 10.8 °C 1014.6 hPa Calm   14.5 km/h 82% 0.0 mm 172 W/m2
08:25 13.8 °C 10.8 °C 1014.6 hPa North 3.2 km/h 9.7 km/h 82% 0.0 mm 169 W/m2
08:30 13.8 °C 10.6 °C 1014.6 hPa ENE 3.2 km/h 14.5 km/h 81% 0.0 mm 183 W/m2
08:35 14 °C 10.8 °C 1014.6 hPa WNW 1.4 km/h 6.4 km/h 81% 0.0 mm 330 W/m2
08:45 14.4 °C 11 °C 1014.6 hPa NNW 9.7 km/h 11.3 km/h 80% 0.0 mm 338 W/m2
08:51 14.6 °C 11.2 °C 1014.6 hPa WNW 4.7 km/h 6.4 km/h 80% 0.0 mm 274 W/m2
08:56 14.7 °C 11.1 °C 1014.6 hPa SSW 1.4 km/h 12.9 km/h 79% 0.0 mm 272 W/m2
09:01 14.8 °C 11.2 °C 1014.6 hPa NNE 3.2 km/h 8 km/h 79% 0.0 mm 575 W/m2
09:06 15.1 °C 11.3 °C 1014.6 hPa ESE 1.4 km/h 12.9 km/h 78% 0.0 mm 526 W/m2
09:11 15.3 °C 11.3 °C 1014.6 hPa East 6.4 km/h 11.3 km/h 77% 0.0 mm 325 W/m2
09:16 15.3 °C 11.1 °C 1014.6 hPa East 1.4 km/h 1.6 km/h 76% 0.0 mm 234 W/m2
09:21 15.2 °C 11.2 °C 1014.9 hPa ENE 6.4 km/h 11.3 km/h 77% 0.0 mm 232 W/m2
09:26 15.2 °C 11.2 °C 1014.9 hPa East 1.4 km/h 11.3 km/h 77% 0.0 mm 213 W/m2
09:31 15.1 °C 11.1 °C 1014.9 hPa East 3.2 km/h 8 km/h 77% 0.0 mm 207 W/m2
09:36 15.1 °C 11.3 °C 1014.9 hPa WNW 1.4 km/h 6.4 km/h 78% 0.0 mm 232 W/m2
09:41 15.1 °C 11.3 °C 1014.9 hPa SW 1.4 km/h 9.7 km/h 78% 0.0 mm 325 W/m2
09:46 15.1 °C 11.3 °C 1014.9 hPa North 3.2 km/h 6.4 km/h 78% 0.0 mm 403 W/m2
09:51 15.2 °C 11.4 °C 1014.9 hPa NE 9.7 km/h 9.7 km/h 78% 0.0 mm 432 W/m2
09:56 15.3 °C 11.3 °C 1014.9 hPa NNW 4.7 km/h 8 km/h 77% 0.0 mm 311 W/m2
10:01 15.3 °C 11.3 °C 1014.9 hPa NNE 6.4 km/h 9.7 km/h 77% 0.0 mm 278 W/m2
10:06 15.3 °C 11.3 °C 1014.9 hPa NW 4.7 km/h 6.4 km/h 77% 0.0 mm 399 W/m2
10:11 15.6 °C 11.8 °C 1014.9 hPa SW 3.2 km/h 9.7 km/h 78% 0.0 mm 381 W/m2
10:16 15.9 °C 11.7 °C 1014.9 hPa East 1.4 km/h 6.4 km/h 76% 0.0 mm 596 W/m2
10:21 16.1 °C 11.9 °C 1014.9 hPa NNE 1.4 km/h 6.4 km/h 76% 0.0 mm 371 W/m2
10:26 16.1 °C 11.7 °C 1014.9 hPa NNE 6.4 km/h 9.7 km/h 75% 0.0 mm 373 W/m2
10:31 16 °C 11.8 °C 1014.9 hPa Calm   6.4 km/h 76% 0.0 mm 373 W/m2
10:36 16.2 °C 11.8 °C 1014.9 hPa WNW 3.2 km/h 8 km/h 75% 0.0 mm 793 W/m2
10:41 16.4 °C 12 °C 1014.9 hPa SW 3.2 km/h 6.4 km/h 75% 0.0 mm 475 W/m2
10:46 16.8 °C 12.1 °C 1014.6 hPa West 3.2 km/h 4.8 km/h 74% 0.0 mm 455 W/m2
10:51 17.1 °C 12.2 °C 1014.6 hPa NW 4.7 km/h 12.9 km/h 73% 0.0 mm 761 W/m2
10:56 17.3 °C 12.2 °C 1014.6 hPa WNW 6.4 km/h 6.4 km/h 72% 0.0 mm 926 W/m2
11:01 17.6 °C 12.3 °C 1014.6 hPa SSE 4.7 km/h 8 km/h 71% 0.0 mm 761 W/m2
11:06 17.8 °C 12.3 °C 1014.6 hPa SW 3.2 km/h 4.8 km/h 70% 0.0 mm 352 W/m2
11:16 17.6 °C 12.3 °C 1014.6 hPa East 3.2 km/h 6.4 km/h 71% 0.0 mm 234 W/m2
11:21 17.6 °C 12.1 °C 1014.6 hPa NNE 3.2 km/h 9.7 km/h 70% 0.0 mm 257 W/m2
11:26 17.4 °C 11.9 °C 1014.6 hPa NNE 3.2 km/h 11.3 km/h 70% 0.0 mm 318 W/m2
11:31 17.4 °C 11.7 °C 1014.6 hPa ENE 3.2 km/h 6.4 km/h 69% 0.0 mm 526 W/m2
11:36 17.6 °C 12.1 °C 1014.6 hPa NE 4.7 km/h 6.4 km/h 70% 0.0 mm 552 W/m2
11:41 17.7 °C 12.2 °C 1014.6 hPa NNW 4.7 km/h 6.4 km/h 70% 0.0 mm 805 W/m2
11:46 18 °C 12.2 °C 1014.9 hPa WNW 1.4 km/h 8 km/h 69% 0.0 mm 889 W/m2
11:51 18.3 °C 12.3 °C 1014.6 hPa WNW 1.4 km/h 9.7 km/h 68% 0.0 mm 816 W/m2
11:56 18.1 °C 11.9 °C 1014.9 hPa NNW 4.7 km/h 14.5 km/h 67% 0.0 mm 388 W/m2
12:01 17.6 °C 11.6 °C 1014.9 hPa NE 1.4 km/h 4.8 km/h 68% 0.0 mm 345 W/m2
12:11 17.4 °C 11.9 °C 1014.9 hPa ESE 4.7 km/h 8 km/h 70% 0.0 mm 432 W/m2
12:16 17.4 °C 11.7 °C 1014.9 hPa WNW 3.2 km/h 6.4 km/h 69% 0.0 mm 360 W/m2
12:21 17.4 °C 11.9 °C 1014.9 hPa NW 1.4 km/h 3.2 km/h 70% 0.0 mm 320 W/m2
12:26 17.4 °C 11.9 °C 1014.9 hPa Calm   4.8 km/h 70% 0.0 mm 313 W/m2
12:31 17.4 °C 11.9 °C 1014.9 hPa NNW 3.2 km/h 4.8 km/h 70% 0.0 mm 323 W/m2
12:36 17.6 °C 12.1 °C 1014.6 hPa WNW 3.2 km/h 6.4 km/h 70% 0.0 mm 315 W/m2
12:41 17.6 °C 11.6 °C 1014.6 hPa Calm   8 km/h 68% 0.0 mm 302 W/m2
12:46 17.6 °C 11.8 °C 1014.6 hPa ENE 3.2 km/h 4.8 km/h 69% 0.0 mm 318 W/m2
12:51 17.8 °C 12 °C 1014.6 hPa ENE 3.2 km/h 8 km/h 69% 0.0 mm 438 W/m2
12:56 18.2 °C 12.2 °C 1014.6 hPa NNW 1.4 km/h 6.4 km/h 68% 0.0 mm 608 W/m2
13:01 18.4 °C 12.2 °C 1014.6 hPa NE 3.2 km/h 6.4 km/h 67% 0.0 mm 599 W/m2
13:06 18.8 °C 11.8 °C 1014.6 hPa East 4.7 km/h 6.4 km/h 64% 0.0 mm 519 W/m2
13:12 18.8 °C 11.4 °C 1014.6 hPa WSW 4.7 km/h 4.8 km/h 62% 0.0 mm 661 W/m2
13:17 19 °C 11.8 °C 1014.6 hPa East 6.4 km/h 14.5 km/h 63% 0.0 mm 540 W/m2
13:22 19.2 °C 12 °C 1014.6 hPa South 4.7 km/h 9.7 km/h 63% 0.0 mm 499 W/m2
13:27 19.2 °C 11.5 °C 1014.6 hPa ESE 3.2 km/h 14.5 km/h 61% 0.0 mm 445 W/m2
13:32 19.2 °C 11.7 °C 1014.6 hPa ESE 9.7 km/h 11.3 km/h 62% 0.0 mm 364 W/m2
13:37 19 °C 11.6 °C 1014.2 hPa West 13 km/h 16.1 km/h 62% 0.0 mm 306 W/m2
13:42 18.8 °C 11.6 °C 1014.2 hPa WNW 3.2 km/h 9.7 km/h 63% 0.0 mm 279 W/m2
13:47 18.8 °C 11.4 °C 1014.2 hPa ENE 3.2 km/h 12.9 km/h 62% 0.0 mm 258 W/m2
13:52 18.9 °C 11.5 °C 1014.2 hPa SE 1.4 km/h 6.4 km/h 62% 0.0 mm 253 W/m2
13:57 18.9 °C 11.5 °C 1014.2 hPa ESE 1.4 km/h 4.8 km/h 62% 0.0 mm 243 W/m2
14:02 18.8 °C 11.1 °C 1014.2 hPa WNW 6.4 km/h 6.4 km/h 61% 0.0 mm 214 W/m2
14:07 18.7 °C 10.8 °C 1014.2 hPa WNW 1.4 km/h 6.4 km/h 60% 0.0 mm 209 W/m2
14:12 18.8 °C 11.4 °C 1014.2 hPa Calm   3.2 km/h 62% 0.0 mm 207 W/m2
14:17 18.8 °C 11.4 °C 1014.2 hPa WNW 1.4 km/h 3.2 km/h 62% 0.0 mm 214 W/m2
14:22 18.9 °C 11.5 °C 1014.2 hPa NE 1.4 km/h 6.4 km/h 62% 0.0 mm 241 W/m2
14:27 18.9 °C 11.2 °C 1014.2 hPa ENE 3.2 km/h 6.4 km/h 61% 0.0 mm 320 W/m2
14:32 19 °C 11.3 °C 1013.9 hPa NW 3.2 km/h 9.7 km/h 61% 0.0 mm 350 W/m2
14:37 19.1 °C 11.4 °C 1014.2 hPa NNE 1.4 km/h 4.8 km/h 61% 0.0 mm 362 W/m2
14:42 19.3 °C 11.6 °C 1013.9 hPa Calm   11.3 km/h 61% 0.0 mm 380 W/m2
14:47 19.4 °C 11.7 °C 1013.9 hPa WNW 3.2 km/h 3.2 km/h 61% 0.0 mm 371 W/m2
14:52 19.5 °C 11 °C 1013.9 hPa SW 3.2 km/h 8 km/h 58% 0.0 mm 316 W/m2
14:57 19.4 °C 10.4 °C 1013.9 hPa ESE 3.2 km/h 3.2 km/h 56% 0.0 mm 304 W/m2
15:02 19.3 °C 10.6 °C 1013.9 hPa NNE 1.4 km/h 9.7 km/h 57% 0.0 mm 315 W/m2
15:07 19.4 °C 10.7 °C 1013.9 hPa ENE 1.4 km/h 4.8 km/h 57% 0.0 mm 339 W/m2
15:12 19.6 °C 11.1 °C 1013.9 hPa East 1.4 km/h 3.2 km/h 58% 0.0 mm 343 W/m2
15:17 19.7 °C 10.9 °C 1013.9 hPa ENE 1.4 km/h 11.3 km/h 57% 0.0 mm 325 W/m2
15:22 19.8 °C 11.6 °C 1013.9 hPa NW 3.2 km/h 9.7 km/h 59% 0.0 mm 327 W/m2
15:27 19.9 °C 11.1 °C 1013.9 hPa North 3.2 km/h 6.4 km/h 57% 0.0 mm 322 W/m2
15:32 19.9 °C 11.1 °C 1013.9 hPa NNE 1.4 km/h 9.7 km/h 57% 0.0 mm 350 W/m2
15:37 19.8 °C 10.8 °C 1013.9 hPa NNW 4.7 km/h 6.4 km/h 56% 0.0 mm 278 W/m2
15:42 19.8 °C 10.8 °C 1013.9 hPa NE 1.4 km/h 3.2 km/h 56% 0.0 mm 109 W/m2
15:47 19.5 °C 10.8 °C 1014.2 hPa ESE 4.7 km/h 11.3 km/h 57% 0.0 mm 37 W/m2
15:52 18.8 °C 11.1 °C 1014.2 hPa ESE 4.7 km/h 8 km/h 61% 0.0 mm 33 W/m2
15:57 17.9 °C 12.4 °C 1014.6 hPa NE 4.7 km/h 16.1 km/h 70% 0.0 mm 47 W/m2
16:02 16.8 °C 12.1 °C 1014.6 hPa East 3.2 km/h 6.4 km/h 74% 0.5 mm 70 W/m2
16:07 16.2 °C 12.6 °C 1014.6 hPa ESE 1.4 km/h 4.8 km/h 79% 0.8 mm 84 W/m2
16:12 15.6 °C 12.4 °C 1014.6 hPa SE 4.7 km/h 4.8 km/h 81% 1.0 mm 107 W/m2
16:17 15.2 °C 12.3 °C 1014.6 hPa East 3.2 km/h 9.7 km/h 83% 1.0 mm 130 W/m2
16:22 15 °C 12.5 °C 1014.6 hPa Calm   4.8 km/h 85% 1.0 mm 151 W/m2
16:27 15 °C 12.9 °C 1014.2 hPa SW 1.4 km/h 9.7 km/h 87% 1.0 mm 162 W/m2
16:32 14.9 °C 12.8 °C 1014.2 hPa SE 3.2 km/h 4.8 km/h 87% 1.0 mm 171 W/m2
16:37 15.1 °C 13 °C 1014.2 hPa Calm   6.4 km/h 87% 1.3 mm 181 W/m2
16:42 15.1 °C 13 °C 1014.2 hPa ENE 1.4 km/h 1.6 km/h 87% 1.3 mm 200 W/m2
16:47 15.2 °C 12.9 °C 1014.2 hPa Calm   4.8 km/h 86% 1.3 mm 229 W/m2
16:57 15.4 °C 13.1 °C 1014.2 hPa North 1.4 km/h 1.6 km/h 86% 1.3 mm 155 W/m2
17:02 15.6 °C 13.1 °C 1014.2 hPa East 3.2 km/h 3.2 km/h 85% 0.8 mm 137 W/m2
17:07 15.8 °C 13.6 °C 1014.2 hPa Calm     87% 0.5 mm 135 W/m2
17:12 15.9 °C 13.9 °C 1014.2 hPa Calm   3.2 km/h 88% 0.2 mm 132 W/m2
17:17 15.7 °C 13.5 °C 1014.2 hPa SW 1.4 km/h 3.2 km/h 87% 0.2 mm 137 W/m2
17:23 15.4 °C 13.2 °C 1013.9 hPa SW 3.2 km/h 3.2 km/h 87% 0.2 mm 153 W/m2
17:28 15.3 °C 13.3 °C 1013.9 hPa SW 1.4 km/h 3.2 km/h 88% 0.2 mm 179 W/m2
17:33 15.3 °C 13.5 °C 1013.9 hPa SW 1.4 km/h 1.6 km/h 89% 0.0 mm 188 W/m2
17:38 15.3 °C 13.5 °C 1013.9 hPa Calm     89% 0.0 mm 193 W/m2
17:43 15.6 °C 13.8 °C 1013.9 hPa Calm     89% 0.0 mm 202 W/m2
17:48 15.8 °C 14.2 °C 1013.9 hPa Calm     90% 0.0 mm 204 W/m2
17:53 15.9 °C 13.9 °C 1013.9 hPa WSW 3.2 km/h 3.2 km/h 88% 0.0 mm 188 W/m2
17:58 16.2 °C 13.7 °C 1014.2 hPa Calm   1.6 km/h 85% 0.0 mm 185 W/m2
18:03 16.3 °C 14 °C 1013.9 hPa Calm   1.6 km/h 86% 0.0 mm 179 W/m2
18:08 16.6 °C 14.2 °C 1013.9 hPa Calm     86% 0.0 mm 207 W/m2
18:13 16.6 °C 13.9 °C 1013.9 hPa Calm   3.2 km/h 84% 0.0 mm 230 W/m2
18:18 16.8 °C 13.3 °C 1013.9 hPa Calm   1.6 km/h 80% 0.0 mm 285 W/m2
18:23 16.9 °C 13.2 °C 1013.9 hPa Calm   1.6 km/h 79% 0.0 mm 244 W/m2
18:28 17.1 °C 13.2 °C 1013.9 hPa WNW 1.4 km/h 3.2 km/h 78% 0.0 mm 200 W/m2
18:33 17 °C 13.1 °C 1014.2 hPa WSW 3.2 km/h 3.2 km/h 78% 0.0 mm 214 W/m2
18:38 16.9 °C 12.8 °C 1014.2 hPa Calm   3.2 km/h 77% 0.0 mm 229 W/m2
18:43 17.1 °C 13.6 °C 1014.2 hPa WSW 1.4 km/h 1.6 km/h 80% 0.0 mm 230 W/m2
18:49 17.1 °C 12.2 °C 1014.2 hPa Calm   1.6 km/h 73% 0.0 mm 214 W/m2
18:54 17.3 °C 13.2 °C 1013.9 hPa NNW 1.4 km/h 4.8 km/h 77% 0.0 mm 232 W/m2
18:59 17.4 °C 12.3 °C 1013.9 hPa NW 1.4 km/h 1.6 km/h 72% 0.0 mm 127 W/m2
19:04 17.6 °C 13.1 °C 1013.9 hPa Calm   1.6 km/h 75% 0.0 mm 93 W/m2
19:09 17.5 °C 13.4 °C 1013.9 hPa West 1.4 km/h 3.2 km/h 77% 0.0 mm 97 W/m2
19:14 17.3 °C 13.2 °C 1013.9 hPa Calm   1.6 km/h 77% 0.0 mm 111 W/m2
19:19 17.2 °C 14.1 °C 1013.9 hPa Calm   1.6 km/h 82% 0.0 mm 116 W/m2
19:24 17.1 °C 14 °C 1013.9 hPa SE 3.2 km/h 4.8 km/h 82% 0.0 mm 100 W/m2
19:29 17.1 °C 14.2 °C 1013.9 hPa Calm   1.6 km/h 83% 0.0 mm 70 W/m2
19:34 16.9 °C 14 °C 1013.9 hPa SE 1.4 km/h 3.2 km/h 83% 0.0 mm 69 W/m2
19:39 16.7 °C 13.8 °C 1014.2 hPa Calm   1.6 km/h 83% 0.0 mm 65 W/m2
19:44 16.6 °C 13.9 °C 1014.2 hPa Calm   3.2 km/h 84% 0.0 mm 42 W/m2
19:49 16.4 °C 13.1 °C 1014.2 hPa NW 4.7 km/h 4.8 km/h 81% 0.0 mm 21 W/m2
19:54 16.5 °C 12.7 °C 1014.2 hPa SW 1.4 km/h 4.8 km/h 78% 0.0 mm 12 W/m2
19:59 16.7 °C 12.6 °C 1014.2 hPa NNW 1.4 km/h 8 km/h 77% 0.0 mm 12 W/m2
20:04 16.7 °C 12.6 °C 1014.6 hPa SSW 3.2 km/h 3.2 km/h 77% 0.0 mm 16 W/m2
20:09 16.7 °C 12.8 °C 1014.6 hPa North 1.4 km/h 6.4 km/h 78% 0.0 mm 25 W/m2
20:14 16.7 °C 12.8 °C 1014.6 hPa NNE 1.4 km/h 4.8 km/h 78% 0.0 mm 33 W/m2
20:19 16.6 °C 11.7 °C 1014.6 hPa North 1.4 km/h 4.8 km/h 73% 0.0 mm 33 W/m2
20:24 16.5 °C 11.2 °C 1014.6 hPa SSE 1.4 km/h 4.8 km/h 71% 0.0 mm 30 W/m2
20:29 16.4 °C 11.1 °C 1014.6 hPa NNE 3.2 km/h 8 km/h 71% 0.0 mm 26 W/m2
20:34 16.3 °C 11.2 °C 1014.6 hPa NW 7.9 km/h 12.9 km/h 72% 0.0 mm 25 W/m2
20:39 16.1 °C 11.1 °C 1014.9 hPa NW 6.4 km/h 14.5 km/h 72% 0.0 mm 21 W/m2
20:44 16 °C 11.2 °C 1014.6 hPa WSW 4.7 km/h 6.4 km/h 73% 0.0 mm 18 W/m2
20:49 15.8 °C 11 °C 1014.9 hPa WNW 14.5 km/h 14.5 km/h 73% 0.0 mm 12 W/m2
20:54 15.7 °C 11.1 °C 1014.9 hPa NE 1.4 km/h 8 km/h 74% 0.0 mm 9 W/m2
20:59 15.7 °C 11.3 °C 1014.9 hPa NE 1.4 km/h 9.7 km/h 75% 0.0 mm 7 W/m2
21:04 15.6 °C 11.2 °C 1014.9 hPa North 4.7 km/h 9.7 km/h 75% 0.0 mm 5 W/m2
21:09 15.4 °C 11.2 °C 1014.9 hPa NNW 3.2 km/h 9.7 km/h 76% 0.0 mm 5 W/m2
21:14 15.3 °C 11.3 °C 1014.9 hPa West 9.7 km/h 14.5 km/h 77% 0.0 mm 0 W/m2
21:19 15.2 °C 11.2 °C 1014.9 hPa NNW 3.2 km/h 8 km/h 77% 0.0 mm 0 W/m2
21:24 15.1 °C 11.3 °C 1014.9 hPa NW 4.7 km/h 9.7 km/h 78% 0.0 mm 0 W/m2
21:29 15 °C 11.4 °C 1014.9 hPa WNW 3.2 km/h 3.2 km/h 79% 0.0 mm 0 W/m2
21:34 14.9 °C 11.5 °C 1015.2 hPa NW 4.7 km/h 9.7 km/h 80% 0.0 mm 0 W/m2
21:39 14.8 °C 11.6 °C 1015.2 hPa West 1.4 km/h 9.7 km/h 81% 0.0 mm 0 W/m2
21:44 14.8 °C 11.6 °C 1015.2 hPa West 4.7 km/h 6.4 km/h 81% 0.0 mm 0 W/m2
21:49 14.8 °C 11.6 °C 1015.2 hPa NNW 6.4 km/h 6.4 km/h 81% 0.0 mm 0 W/m2
21:54 14.7 °C 11.7 °C 1015.2 hPa WNW 1.4 km/h 6.4 km/h 82% 0.0 mm 0 W/m2
21:59 14.7 °C 11.7 °C 1015.2 hPa NW 6.4 km/h 11.3 km/h 82% 0.0 mm 0 W/m2
22:04 14.7 °C 11.7 °C 1015.2 hPa WNW 1.4 km/h 6.4 km/h 82% 0.0 mm 0 W/m2
22:09 14.7 °C 11.7 °C 1015.2 hPa WNW 1.4 km/h 6.4 km/h 82% 0.0 mm 0 W/m2
22:14 14.7 °C 11.5 °C 1015.2 hPa West 4.7 km/h 6.4 km/h 81% 0.0 mm 0 W/m2
22:19 14.8 °C 11.6 °C 1015.2 hPa WNW 1.4 km/h 9.7 km/h 81% 0.0 mm 0 W/m2
22:25 14.8 °C 11.6 °C 1015.2 hPa Calm   4.8 km/h 81% 0.0 mm 0 W/m2
22:30 14.8 °C 11.4 °C 1015.2 hPa North 6.4 km/h 6.4 km/h 80% 0.0 mm 0 W/m2
22:40 14.8 °C 11.4 °C 1015.2 hPa NW 4.7 km/h 8 km/h 80% 0.0 mm 0 W/m2
22:45 14.8 °C 11.4 °C 1015.2 hPa NNW 3.2 km/h 6.4 km/h 80% 0.0 mm 0 W/m2
22:50 14.9 °C 11.5 °C 1015.2 hPa WNW 1.4 km/h 6.4 km/h 80% 0.0 mm 0 W/m2
22:55 14.8 °C 11.4 °C 1015.2 hPa WNW 6.4 km/h 12.9 km/h 80% 0.0 mm 0 W/m2
23:00 14.8 °C 11.4 °C 1015.2 hPa North 3.2 km/h 12.9 km/h 80% 0.0 mm 0 W/m2
23:05 14.8 °C 11.4 °C 1015.2 hPa NNW 3.2 km/h 12.9 km/h 80% 0.0 mm 0 W/m2
23:10 14.8 °C 11.4 °C 1015.2 hPa NW 1.4 km/h 6.4 km/h 80% 0.0 mm 0 W/m2
23:15 14.9 °C 11.5 °C 1015.2 hPa North 1.4 km/h 12.9 km/h 80% 0.0 mm 0 W/m2
23:20 14.9 °C 11.3 °C 1015.2 hPa North 1.4 km/h 4.8 km/h 79% 0.0 mm 0 W/m2
23:25 14.9 °C 11.5 °C 1015.2 hPa West 1.4 km/h 4.8 km/h 80% 0.0 mm 0 W/m2
23:30 14.9 °C 11.3 °C 1015.2 hPa NE 6.4 km/h 8 km/h 79% 0.0 mm 0 W/m2
23:35 14.9 °C 11.3 °C 1015.2 hPa ENE 3.2 km/h 4.8 km/h 79% 0.0 mm 0 W/m2
23:40 14.9 °C 11.3 °C 1015.2 hPa NNW 3.2 km/h 4.8 km/h 79% 0.0 mm 0 W/m2
23:45 14.8 °C 11.2 °C 1015.2 hPa Calm   3.2 km/h 79% 0.0 mm 0 W/m2
23:50 14.8 °C 11.4 °C 1015.2 hPa Calm   3.2 km/h 80% 0.0 mm 0 W/m2
23:55 14.7 °C 11.3 °C 1015.6 hPa Calm   1.6 km/h 80% 0.0 mm 0 W/m2
Juneau County Weather
Compliments of Weather Underground - 4 mb